This is the latest recevied weather packets stored in our database for station/object DL2GKM-6. If no packets are shown the sender has not sent any weather packets the latest 1 day(s).
| Time | Temp. | Humidity | Pressure | Rain* | Wind** | Luminosity | Snow |
|---|---|---|---|---|---|---|---|
| 1778069066 | 14.44° C | 84% | 1005.3 hPa | 128.78 mm | - | - | - |
| 1778068506 | 13.89° C | 83% | 1005.3 hPa | 128.78 mm | - | - | - |
| 1778068221 | 13.89° C | 83% | 1005.3 hPa | 128.78 mm | - | - | - |
| 1778067976 | 13.89° C | 83% | 1005.4 hPa | 128.78 mm | - | - | - |
| 1778067686 | 13.89° C | 83% | 1005.3 hPa | 128.78 mm | - | - | - |
| 1778067131 | 13.89° C | 84% | 1005.4 hPa | 128.78 mm | - | - | - |
| 1778066866 | 13.89° C | 83% | 1005.4 hPa | 128.78 mm | - | - | - |
| 1778065526 | 14.44° C | 80% | 1005.6 hPa | 128.78 mm | - | - | - |
| 1778065226 | 14.44° C | 78% | 1005.6 hPa | 128.78 mm | - | - | - |
| 1778064976 | 14.44° C | 77% | 1005.5 hPa | 128.78 mm | - | - | - |
| 1778064736 | 15° C | 75% | 1005.4 hPa | 128.78 mm | - | - | - |
| 1778064476 | 15° C | 73% | 1005.4 hPa | 128.78 mm | - | - | - |
| 1778064236 | 15.56° C | 73% | 1005.5 hPa | 128.78 mm | - | - | - |
| 1778063956 | 15.56° C | 70% | 1005.5 hPa | 128.78 mm | - | - | - |
| 1778063416 | 16.11° C | 62% | 1005.6 hPa | 128.78 mm | - | - | - |
| 1778063129 | 16.67° C | 62% | 1005.5 hPa | 128.78 mm | - | - | - |
| 1778062586 | 16.67° C | 61% | 1005.6 hPa | 128.78 mm | - | - | - |
| 1778062046 | 16.67° C | 60% | 1005.7 hPa | 128.78 mm | - | - | - |
| 1778061766 | 16.67° C | 59% | 1005.7 hPa | 128.78 mm | - | - | - |
| 1778061489 | 16.67° C | 57% | 1005.7 hPa | 128.78 mm | - | - | - |
| 1778061189 | 16.67° C | 56% | 1005.8 hPa | 128.78 mm | - | - | - |
| 1778060936 | 16.67° C | 57% | 1005.8 hPa | 128.78 mm | - | - | - |
| 1778060636 | 16.67° C | 56% | 1005.7 hPa | 128.78 mm | - | - | - |
| 1778060356 | 16.67° C | 55% | 1005.8 hPa | 128.78 mm | - | - | - |
| 1778060056 | 16.67° C | 56% | 1005.8 hPa | 128.78 mm | - | - | - |
* Rain latest 24 hours (hover to see other rain measurements)
** Current wind speed in m/s (hover to see current wind gust speed)